HST,Max TemperatureF,Mean TemperatureF,Min TemperatureF,Max Dew PointF,MeanDew PointF,Min DewpointF,Max Humidity, Mean Humidity, Min Humidity, Max Sea Level PressureIn, Mean Sea Level PressureIn, Min Sea Level PressureIn, Max VisibilityMiles, Mean VisibilityMiles, Min VisibilityMiles, Max Wind SpeedMPH, Mean Wind SpeedMPH, Max Gust SpeedMPH,PrecipitationIn, CloudCover, Events, WindDirDegrees
2012-1-1,79,74,68,67,64,60,81,71,56,30.06,30.01,29.96,10,10,5,10,6,,0.00,1,,122
2012-1-2,80,74,68,68,66,61,81,74,66,30.12,30.07,30.02,10,10,10,9,5,,0.00,1,,75
2012-1-3,82,78,73,70,66,59,79,68,54,30.17,30.10,30.05,10,10,10,17,7,17,0.00,6,,339
2012-1-4,81,76,71,70,66,60,83,72,62,30.19,30.15,30.09,10,10,10,12,5,,0.00,4,,180
2012-1-5,81,75,69,68,63,56,79,67,53,30.18,30.13,30.06,10,10,10,12,6,,0.00,3,,176
2012-1-6,80,73,66,62,60,58,79,62,50,30.14,30.08,30.04,10,10,10,10,5,,0.00,5,,175
2012-1-7,79,72,66,60,58,55,73,59,45,30.10,30.07,30.04,10,10,10,9,4,,0.00,0,,122
2012-1-8,79,72,64,65,60,55,73,64,50,30.09,30.06,30.01,10,10,10,12,5,,0.00,1,,153
2012-1-9,79,74,68,64,59,53,73,60,49,30.10,30.06,30.01,10,10,10,9,7,,0.00,1,,150
2012-1-10,80,73,66,64,59,54,68,59,47,30.07,30.03,29.97,10,10,10,13,6,,0.00,0,,136
2012-1-11,78,73,68,65,62,56,73,67,60,30.03,29.99,29.95,10,10,10,10,5,,0.00,1,,189
2012-1-12,77,72,68,66,62,58,78,68,62,29.98,29.93,29.89,10,10,10,14,4,,0.00,6,Rain,35
2012-1-13,80,74,68,66,63,58,76,68,60,29.92,29.89,29.86,10,10,10,12,6,,0.00,1,,170
2012-1-14,80,74,69,64,60,57,73,62,52,29.96,29.91,29.86,10,10,10,12,4,,0.00,0,,153
2012-1-15,82,76,71,67,64,59,73,64,47,30.01,29.93,29.85,10,10,10,24,9,30,0.00,2,,147
2012-1-16,82,77,72,70,66,60,88,71,46,30.04,29.99,29.93,10,10,10,17,7,,0.00,1,,353
2012-1-17,82,78,73,70,66,64,88,71,56,30.06,29.98,29.91,10,10,10,18,6,23,0.00,3,,30
2012-1-18,81,76,71,69,66,61,83,71,58,30.06,30.01,29.97,10,10,10,13,7,,0.00,4,,334
2012-1-19,81,76,71,70,66,59,88,73,60,30.12,30.07,30.04,10,10,10,15,9,,0.00,5,,344
2012-1-20,81,75,69,66,63,59,76,67,58,30.12,30.07,30.02,10,10,10,14,5,,0.00,0,,160
2012-1-21,80,74,68,67,64,60,76,70,62,30.15,30.08,30.04,10,10,10,12,4,,0.00,2,,180
2012-1-22,81,75,69,66,63,58,76,65,56,30.06,30.01,29.94,10,10,10,18,7,,0.00,3,,157
2012-1-23,81,76,71,65,62,58,71,63,54,30.06,30.02,29.97,10,10,10,10,7,,0.00,0,,155
2012-1-24,80,73,66,68,64,58,87,70,56,30.04,30.01,29.96,10,10,4,16,7,20,0.31,3,Rain,164
2012-1-25,82,76,70,67,65,62,81,71,56,30.03,30.00,29.94,10,10,10,12,7,,0.00,2,,70
2012-1-26,80,74,68,67,64,58,78,70,59,29.99,29.95,29.89,10,10,10,13,6,,0.00,1,,1
2012-1-27,81,76,70,67,62,56,76,65,52,30.04,29.97,29.90,10,10,10,15,8,,0.00,0,,96
2012-1-28,79,74,69,63,61,58,75,64,54,30.07,30.03,29.99,10,10,10,13,8,,0.00,2,,165
2012-1-29,80,74,68,66,61,56,71,63,50,30.11,30.07,30.03,10,10,10,10,6,,0.00,1,,161
2012-1-30,79,74,70,63,62,58,71,64,54,30.08,30.03,29.98,10,10,10,12,7,16,0.00,3,,181
2012-1-31,80,76,71,64,62,59,73,63,54,30.02,29.97,29.92,10,10,10,9,4,,0.00,7,,271